Simultaneous Nadir Overpasses (SNOs) Predictions

Prediction of SNOs between GOES-16 and LANDSAT-8 Satellite Orbit:

Table of predicted SNOs for the next 14.0 days since TLE Epoch: 9/3/2022
Index Date Time (GOES-16) GOES-16 Lat,Lon LANDSAT-8 Lat,Lon Distance(km) Time Diff (sec)
1 09/04/2022 15:13:09 -0.04, -75.21 -0.01, -75.42 22.94 80
2 09/06/2022 15:03:39 -0.03, -75.22 -0.64, -72.47 313.59 80
3 09/07/2022 03:25:03 0.03, -75.21 -0.50, -77.65 277.44 80
4 09/09/2022 03:10:13 0.03, -75.23 0.13, -74.70 60.08 80
5 09/11/2022 02:58:03 0.02, -75.25 0.77, -71.75 398.56 80
6 09/11/2022 15:19:19 -0.02, -75.27 0.31, -76.91 186.23 80
7 09/13/2022 15:09:49 -0.02, -75.30 -0.34, -73.96 153.27 80
8 09/14/2022 03:31:12 0.02, -75.30 -0.80, -79.14 436.81 80
9 09/15/2022 14:57:38 -0.02, -75.34 -0.93, -71.00 493.23 80
10 09/16/2022 03:19:03 0.02, -75.34 -0.14, -76.19 96.75 80
